Vorticity
nan nan nan nan nan nan nan nan nan nan nan nan nan nan nan nan nan nan nan nan nan nan nan nan nan nan nan nan nan nan nan nan nan nan nan nan nan nan nan nan nan nan nan
nan 9 9 8 10 9 8 8 9 9 8 8 9 9 9 9 10 8 7 7 8 7 7 7 8 8 8 8 9 8 8 8 9 7 10 9 9 9 8 7 8 8 nan
nan 9 9 9 9 9 9 8 9 9 10 9 9 10 9 8 8 9 9 8 8 8 8 7 8 7 7 8 9 8 8 8 9 9 8 10 9 9 8 7 6 9 nan
nan 9 8 10 8 9 9 10 9 8 8 10 10 9 10 9 9 9 9 8 8 9 9 8 9 8 8 7 8 8 8 8 8 8 9 9 8 7 6 8 9 7 nan
nan 10 10 9 10 10 10 9 9 9 9 9 9 9 9 8 11 13 10 10 9 9 9 9 9 11 11 7 7 10 9 8 8 8 8 8 8 7 7 8 8 8 nan
nan 9 9 11 11 10 10 10 9 9 9 9 9 9 6 9 15 12 8 9 10 9 9 9 11 13 11 9 5 8 10 7 6 7 8 9 8 8 9 9 10 8 nan
nan 10 11 11 10 10 10 10 10 10 9 9 9 9 9 10 15 12 5 4 9 9 9 9 9 11 11 10 9 7 7 6 8 8 8 8 9 11 11 11 8 7 nan
nan 9 10 11 11 11 10 8 8 11 10 9 10 9 7 12 15 13 9 2 7 10 10 9 10 10 10 10 12 9 9 9 10 9 10 14 14 13 10 7 8 11 nan
nan 10 11 10 9 10 9 9 9 9 9 9 10 12 9 11 14 12 8 6 9 11 11 11 11 11 15 12 8 10 10 10 12 10 8 13 14 9 9 8 10 8 nan
nan 10 9 10 11 10 10 11 10 10 8 11 12 11 9 12 14 14 1 4 11 11 11 13 13 13 16 11 6 10 10 11 10 11 8 7 8 10 10 6 8 8 nan
nan 14 12 11 10 10 12 12 10 10 12 12 10 11 14 12 11 16 4 -2 9 10 10 12 16 19 13 11 7 10 16 13 11 9 9 9 10 10 10 12 8 9 nan
nan 13 11 10 11 13 12 10 11 11 11 11 10 10 12 13 15 16 13 4 4 8 11 11 20 16 9 10 7 13 18 11 9 9 9 10 9 10 12 12 11 10 nan
nan 11 11 11 11 12 12 9 11 11 9 10 10 10 11 13 20 22 15 8 7 10 15 18 17 13 9 7 12 16 6 6 9 8 9 10 11 11 11 10 10 11 nan
nan 12 11 11 11 9 8 11 9 8 9 11 10 9 11 13 12 15 18 17 11 18 20 16 12 13 8 10 14 9 8 11 9 9 10 11 12 11 9 9 9 9 nan
nan 14 13 13 12 10 11 9 14 15 10 9 10 11 12 16 21 19 17 18 16 13 2 13 17 10 12 10 10 10 10 11 10 11 12 11 9 9 10 9 10 9 nan
nan 13 14 15 14 12 10 5 3 19 30 12 16 15 20 25 20 12 15 15 8 -4 1 14 12 9 9 11 12 10 12 11 11 11 10 11 10 10 9 9 10 9 nan
nan 12 12 13 15 15 12 12 5 -1 17 33 22 20 20 12 8 6 4 1 1 4 6 10 12 11 10 10 12 11 12 12 11 11 11 10 10 10 10 10 10 9 nan
nan 13 13 15 17 16 15 15 15 12 8 9 18 28 17 12 9 10 2 0 6 10 10 10 10 9 11 10 10 10 11 12 10 10 11 10 11 10 11 10 10 10 nan
nan 14 12 12 13 13 13 13 14 18 19 15 8 5 6 6 9 14 8 6 13 12 14 11 10 10 11 10 10 12 12 11 11 10 10 11 11 11 11 10 9 9 nan
nan 15 14 10 9 10 10 9 9 11 12 9 5 7 9 11 12 9 13 11 11 10 11 12 11 13 13 12 12 12 11 12 11 11 11 11 11 11 11 11 9 10 nan
nan 10 12 13 8 8 9 11 13 14 10 11 14 14 8 6 12 10 14 13 12 11 13 12 11 13 11 12 12 12 12 10 10 10 11 11 11 10 10 10 10 9 nan
nan 11 12 12 9 10 11 12 11 13 13 11 12 20 14 10 15 12 12 12 12 14 14 12 12 12 12 12 12 11 10 9 10 11 11 11 10 11 11 10 9 9 nan
nan 14 11 11 14 13 11 11 13 14 15 13 14 14 14 14 14 13 11 14 13 12 12 11 11 12 13 13 12 10 10 11 12 12 11 11 10 12 11 10 9 9 nan
nan 14 14 13 13 12 11 12 14 14 14 13 11 12 17 16 14 13 12 10 11 12 12 12 12 13 11 10 9 10 13 14 13 14 11 11 11 12 10 10 10 10 nan
nan 16 14 11 11 12 13 12 10 11 13 12 11 10 9 12 14 12 12 12 11 11 11 12 16 16 11 8 8 8 11 14 11 11 14 13 14 10 8 9 10 11 nan
nan nan nan nan nan nan nan nan nan nan nan nan nan nan nan nan nan nan nan nan nan nan nan nan nan nan nan nan nan nan nan nan nan nan nan nan nan nan nan nan nan nan nan
CAPE
1743 1757 1766 1737 1849 2021 2105 2207 2283 2380 2095 2321 2180 2158 2297 2264 1903 1596 1301 921 627 565 355 416 478 454 142 101 90 48 0 0 0 0 0 44 13 165 49 116 82 195 116
1727 1847 1883 1943 1959 2021 2121 2209 2316 2400 2279 2686 2450 2198 2310 2219 1974 1740 1477 984 831 733 634 480 430 221 395 245 111 194 37 23 0 278 115 101 131 266 150 295 56 14 78
1740 1815 1934 1982 2077 2140 2261 2290 2331 2415 2461 1981 2242 2344 2139 2174 2056 1742 1783 1388 1062 928 775 630 563 420 321 180 161 128 72 172 233 75 53 99 92 100 130 125 109 52 46
1486 1826 2078 2179 2174 2182 2333 2357 2347 2450 2488 2501 2453 2403 2273 2072 2053 1847 1790 1636 1404 1182 956 745 669 630 516 502 365 386 327 264 264 170 92 138 239 178 108 76 50 30 64
1696 1784 2076 2293 2390 2352 2402 2421 2406 2447 2426 2480 2515 2508 2231 2066 1850 1952 1842 1728 1589 1410 1134 877 731 721 350 504 554 730 698 474 330 249 217 190 122 97 60 9 68 84 72
1795 1766 2051 2405 2508 2438 2444 2449 2507 2490 2523 2523 2465 2491 2447 1998 1322 854 1537 1932 1889 1759 1651 1204 1227 334 85 19 29 285 621 679 617 338 203 174 351 307 18 114 86 11 109
1861 1935 2050 2302 2499 2534 2536 2598 2615 2600 2584 2568 2399 2441 2435 2424 736 236 285 1920 1800 2035 2059 1676 1281 856 229 506 24 0 0 31 249 808 604 516 568 339 344 307 138 250 306
1931 2069 2107 2212 2370 2402 2474 2514 2672 2701 2762 2758 2558 2456 2490 2421 444 51 82 1577 2188 2146 1848 1893 1699 1312 865 998 904 516 367 345 133 202 724 890 593 425 383 186 383 385 340
2099 2189 2237 2026 2059 2440 2497 2535 2541 2567 2670 2809 2788 2778 2633 2650 342 6 23 1340 2040 1846 1711 1564 1617 1517 981 122 870 991 834 781 120 5 34 12 0 0 61 189 317 178 80
2262 2285 2348 2407 2464 2603 2696 2727 2765 2729 2675 2588 2821 2957 2353 2755 353 0 40 1580 1989 1738 1935 1729 525 1397 689 0 905 1117 1133 910 535 91 14 2 0 3 0 180 273 45 8
2001 2178 2576 2830 2791 2771 2976 3018 3064 2828 2783 2711 2878 2983 2905 2503 2325 0 0 1732 2038 1871 1851 1603 1576 65 2 0 100 1234 1190 762 325 428 294 120 29 24 33 47 85 8 0
2419 2742 3206 3212 2602 2580 3125 2911 3093 2987 3434 3185 3082 2873 2651 2800 1536 1 0 130 1473 1770 1777 1604 1024 3 0 0 0 438 89 137 301 106 50 6 8 10 1 0 0 0 0
2565 2998 3023 3134 3194 3418 3263 2955 2879 3391 3244 3134 3112 2794 2738 2442 2339 316 1 0 70 1408 1584 749 515 1 1 1 0 0 0 201 104 48 24 4 0 10 0 0 0 0 0
2572 3005 3172 3132 3175 3465 3141 2510 2912 2997 3122 3229 3307 2915 2738 2570 1814 0 0 0 0 32 1 0 4 2 3 0 1 0 121 257 97 68 70 0 0 0 0 0 0 0 0
2123 2183 2467 2735 2835 3361 3588 3480 3202 3435 3166 3272 3307 3010 3195 1175 0 0 0 2 1 0 1 4 4 3 3 2 2 0 0 21 1 65 1 0 0 0 0 0 0 0 0
2669 2025 1655 1845 2234 2661 3096 1238 1 104 1902 2236 2391 2840 1908 8 1 2 2 1 1 0 1 0 3 4 3 1 0 3 2 0 27 1 0 0 0 0 0 0 0 0 0
1028 1315 1024 1014 1692 1641 1540 1526 1461 244 0 29 683 22 0 0 1 1 1 1 1 0 1 2 2 5 4 0 0 0 0 0 0 0 0 0 0 0 0 0 0 0 0
562 4 417 843 623 699 835 1027 556 394 105 1 0 1 1 0 0 1 1 1 0 1 0 2 2 2 2 0 0 0 0 0 0 0 0 0 0 0 0 0 0 0 0
167 343 419 114 2 53 1 1 29 65 117 2 0 0 0 1 1 0 0 7 2 11 7 4 0 1 20 6 0 0 0 0 0 0 0 0 0 0 0 0 0 0 0
440 37 237 25 0 0 0 0 0 0 1 0 2 1 5 1 5 3 1 9 10 7 3 34 3 23 80 2 0 0 0 0 0 0 0 0 0 0 0 0 0 0 0
138 155 12 420 300 84 2 6 4 1 0 0 0 0 0 4 5 7 11 5 3 7 13 66 79 30 1 0 0 0 0 0 0 0 0 0 0 0 0 0 0 0 0
87 61 174 80 63 10 3 12 7 9 3 1 1 1 0 4 6 11 8 15 40 9 12 1 0 0 0 0 0 0 0 0 0 0 0 0 0 0 0 0 0 0 0
627 188 75 138 69 0 7 5 10 13 8 7 7 6 5 14 16 9 3 0 0 0 0 0 0 0 0 0 0 0 0 0 0 0 0 0 0 0 0 0 0 0 0
427 463 356 149 120 43 6 6 6 2 7 8 5 9 9 8 1 0 1 0 0 0 0 0 0 0 0 0 0 0 0 0 0 0 0 0 0 0 0 0 0 0 0
71 55 111 192 79 41 21 40 9 7 2 1 4 3 1 0 0 0 0 0 0 0 0 0 0 0 0 0 0 0 0 0 0 0 0 0 0 0 0 0 0 0 0
12 48 32 2 7 23 2 1 1 19 4 0 0 0 0 2 16 11 2 5 5 0 0 0 0 0 0 0 0 0 0 0 0 0 0 0 0 0 0 0 0 0 0